{"data":{"norad_id":52609,"intl_designator":"2022-052M","name":"STARLINK-3997","alt_names":[],"object_type":"PAYLOAD","status":"ACTIVE","operator":null,"country":"US","launch_date":"2022-05-14","launch_site_code":"AFETR","launch_vehicle":null,"mission":null,"orbit_class":"UNKNOWN","rcs_meters":null,"size_class":null,"mass_kg":null,"dimensions":null,"purposes":["comms"],"wikipedia_slug":null,"has_3d_model":false,"image_url":null,"decayed_at":null,"tle_current":{"epoch":"2026-05-25T03:23:02.527872Z","epoch_age_seconds":69674,"freshness":"FRESH","line1":"1 52609U 22052M   26145.14100148  .00000659  00000+0  59482-4 0  9991","line2":"2 52609  53.2136 295.8688 0001210  88.0210 272.0921 15.08843057222407","mean_motion":15.08843057,"eccentricity":0.000121,"inclination_deg":53.2136,"raan_deg":295.8688,"arg_perigee_deg":88.021,"mean_anomaly_deg":272.0921,"bstar":5.9482e-5,"rev_number":22240,"period_min":95.437361315969,"perigee_km":538.89698255741,"apogee_km":540.57110735029,"semimajor_km":6917.8710449539,"source":"CELESTRAK","updated_at":"2026-05-25T13:38:17.199095Z"}}}